Wind_Speed
46 47 49 51 54 57 59 61 62 62 62 63 62 59 55 51 48 45 44 43 41 40 39 39 38 37 37 37 37 36 36 36 36 36 38 39 40 39 39 39 40 40 40 39 39 39 39 39 38 38 37 37 36 36 35 35 36 37 38 40 41 42 42 41 41 41 40 39 38 37 35 34 33 32 29 29 28 23 21 22 21 19 17 15 16 20 23 23
42 44 46 49 52 54 56 57 58 58 58 57 54 49 45 41 38 36 35 33 32 31 31 31 31 31 30 30 31 31 31 31 32 32 33 34 35 35 36 36 37 37 37 37 37 37 37 37 37 36 35 35 34 34 33 33 34 35 36 37 38 40 40 40 41 41 41 40 39 37 35 34 33 32 31 31 29 27 26 24 23 21 18 18 20 24 26 27
39 41 43 46 48 50 51 53 53 54 53 50 44 40 36 33 31 29 27 25 24 24 24 25 25 24 24 24 25 25 26 27 27 28 29 30 31 32 33 34 34 35 35 35 35 35 35 35 35 34 33 33 32 32 31 32 32 33 35 35 35 36 37 38 39 40 40 40 40 38 36 35 34 32 32 32 30 29 29 27 26 24 21 22 24 26 25 24
35 38 40 42 44 46 47 49 50 49 46 41 37 33 30 27 26 23 21 18 17 17 18 18 18 19 19 19 20 21 22 23 24 24 26 27 28 29 30 31 32 32 33 33 33 33 33 33 33 32 31 30 30 29 29 30 30 32 33 32 32 35 37 36 37 38 39 39 39 38 36 35 34 34 33 33 31 30 30 28 28 27 25 25 28 29 26 24
33 35 37 39 41 43 44 45 46 44 40 36 32 28 25 23 21 18 15 13 11 11 11 12 12 13 14 14 15 17 19 20 21 22 23 24 25 27 28 29 30 30 30 30 30 31 31 31 30 30 29 28 28 27 27 27 28 30 30 29 32 35 35 35 36 36 36 36 36 36 35 34 34 34 34 33 32 32 31 30 30 30 29 28 30 29 28 29
30 32 34 37 39 40 41 42 43 40 36 33 28 24 22 20 17 14 11 9 7 7 6 6 7 7 8 10 12 14 17 18 19 20 21 22 23 25 26 27 27 27 27 28 28 28 29 29 28 28 27 27 26 25 26 26 26 28 27 27 32 33 33 34 35 34 34 34 33 33 33 32 32 33 33 32 32 33 33 31 30 31 31 30 31 29 29 31
28 31 34 36 38 39 39 41 41 38 35 30 26 23 20 18 15 12 10 8 8 6 4 2 2 2 5 7 11 14 16 17 17 19 20 20 21 22 23 24 25 25 25 25 25 26 26 27 27 26 26 25 25 25 25 25 26 26 25 27 30 30 31 34 32 32 32 31 31 30 29 29 29 30 31 31 32 33 33 31 30 31 32 32 33 33 31 33
28 31 34 37 39 39 38 40 41 39 35 31 27 24 21 18 16 14 13 11 10 8 7 5 4 4 6 9 12 14 17 17 16 18 18 19 19 20 21 21 22 22 22 22 23 24 24 25 25 25 25 24 24 24 24 25 24 24 25 26 29 30 31 32 31 31 31 30 30 29 28 27 27 29 30 31 32 33 32 32 32 34 35 34 36 37 36 37
29 32 35 38 40 40 40 41 43 41 37 33 30 27 24 22 21 19 17 15 13 12 10 9 8 7 9 11 13 13 15 17 15 15 16 16 16 16 17 17 18 18 19 20 21 22 23 24 24 24 24 24 24 24 24 24 24 25 26 26 28 29 30 30 30 30 30 30 29 28 27 26 26 28 29 30 31 32 33 34 34 35 36 37 38 39 38 38
30 33 37 40 41 42 42 42 45 44 40 37 36 32 30 28 26 23 20 18 16 15 14 14 12 11 11 12 12 12 14 16 14 12 13 14 14 14 14 15 15 16 17 18 19 20 22 23 24 24 24 24 24 24 24 24 25 26 26 26 28 28 28 29 29 29 30 30 29 27 26 25 26 28 29 30 31 33 34 34 34 35 36 36 36 36 37 38
30 34 38 41 42 44 45 45 45 45 43 42 41 38 36 33 31 27 24 22 20 19 19 19 18 15 14 12 12 13 14 15 14 12 11 12 13 12 12 13 13 14 15 17 18 20 21 23 23 24 24 24 24 25 25 25 26 26 25 26 27 27 28 28 29 29 29 30 29 27 26 26 27 28 28 30 32 33 33 33 34 34 35 34 33 35 37 37
31 35 38 41 43 44 46 47 46 45 45 44 45 43 41 39 37 34 31 28 26 24 23 23 23 20 19 17 15 15 15 14 13 11 10 10 10 11 11 12 12 14 15 17 18 19 21 22 23 24 24 24 24 25 25 26 26 25 25 26 26 27 28 29 29 29 30 30 29 28 27 27 28 28 29 31 33 33 33 33 34 34 34 34 33 36 36 35
31 34 38 41 43 44 46 48 48 47 45 44 46 47 46 44 43 41 39 37 34 31 29 27 26 24 23 22 19 18 17 15 13 11 10 9 9 9 9 10 11 12 13 14 15 16 18 19 20 21 22 22 23 23 24 25 25 25 25 25 27 27 28 30 28 29 31 29 28 29 27 28 29 30 31 32 33 34 34 33 33 33 33 33 33 35 34 33
31 34 37 40 43 45 45 47 49 48 47 45 45 47 49 49 48 46 44 43 41 39 36 33 31 28 26 24 21 20 18 15 13 11 9 8 7 6 5 5 6 7 8 10 11 12 14 15 17 18 19 20 20 21 22 23 24 24 25 26 26 27 29 29 26 30 31 28 30 30 28 29 30 32 33 32 34 36 35 33 32 33 33 33 32 33 33 32
30 33 37 39 42 44 45 47 48 49 49 47 45 46 48 50 50 50 49 48 45 43 42 39 37 34 31 28 26 24 21 18 16 13 11 9 7 6 4 3 3 4 5 6 7 9 10 12 13 15 16 17 18 19 20 22 23 24 25 25 26 28 30 28 27 32 33 30 32 30 29 31 32 34 35 32 35 36 34 33 32 32 32 33 33 32 32 30
29 32 35 39 41 43 45 46 48 49 50 50 48 47 47 49 50 50 51 51 49 47 46 44 42 40 36 34 32 29 26 23 20 18 15 13 11 9 7 5 3 2 1 2 3 5 6 8 9 11 12 14 15 17 19 22 23 25 25 25 27 29 31 29 30 35 35 30 30 31 33 33 32 36 36 33 35 35 34 34 33 32 32 33 34 32 32 30
28 31 34 37 40 42 44 46 47 48 50 50 50 49 48 49 49 49 49 49 49 48 48 46 45 44 42 40 38 35 33 30 27 25 22 20 17 15 13 11 9 7 5 4 3 3 4 5 6 8 9 11 13 15 17 20 22 23 23 24 26 29 32 31 30 34 34 29 30 35 35 33 33 37 37 35 36 36 35 34 34 33 33 33 34 32 31 31
27 29 32 36 38 40 42 44 46 47 48 49 50 49 49 50 50 49 49 49 48 48 48 47 46 45 44 44 42 40 38 36 34 31 29 27 24 22 19 17 16 14 12 10 8 7 6 5 5 6 6 8 11 13 15 17 19 20 21 23 25 28 31 32 30 30 32 31 32 36 36 35 37 38 37 35 37 37 35 34 34 34 34 33 34 33 31 30
25 28 31 34 36 39 40 42 44 45 46 48 48 48 49 50 51 51 50 51 49 49 50 49 47 45 45 44 42 40 39 37 36 34 32 30 28 26 23 22 20 18 17 15 13 12 10 8 7 8 8 10 11 12 13 14 17 18 19 21 23 27 30 33 32 29 31 33 32 34 37 37 38 37 37 38 38 36 35 34 34 35 35 35 34 33 32 29
24 27 29 32 34 37 38 41 42 44 45 46 46 47 49 49 50 51 50 51 51 50 50 49 47 46 46 44 41 40 38 37 36 35 33 31 29 27 25 22 21 20 19 17 16 15 13 11 10 10 11 12 12 12 13 14 16 17 18 19 22 26 29 33 36 30 29 33 34 36 38 38 39 37 37 41 39 34 36 37 35 36 37 36 35 33 31 27
23 25 28 31 33 35 36 38 40 42 43 44 45 46 47 47 48 50 48 49 51 50 48 48 47 46 45 43 41 40 37 35 35 34 32 30 30 27 24 23 21 20 19 17 16 14 14 13 12 12 13 14 15 15 16 16 17 19 19 21 22 25 29 33 37 34 28 33 36 37 39 38 39 40 38 42 42 36 38 40 36 37 38 36 35 32 28 22
22 24 27 29 31 33 34 35 38 40 41 42 44 45 45 45 46 47 45 47 49 48 45 46 45 44 43 42 41 39 35 34 35 33 32 31 30 26 23 22 20 18 17 16 14 14 13 12 11 11 12 14 16 18 19 20 21 22 23 24 24 27 30 31 35 36 31 31 35 39 42 40 39 42 41 44 47 42 40 41 38 36 36 36 34 31 25 16
21 23 25 28 30 31 33 33 36 38 39 41 42 42 43 45 45 44 43 45 47 46 44 45 44 44 43 41 42 39 35 36 36 34 34 33 30 26 24 22 19 18 18 16 14 12 11 10 9 9 10 11 13 16 19 21 23 25 27 28 28 29 30 30 33 38 32 23 30 40 45 44 42 43 45 49 52 45 38 36 34 32 33 32 31 29 22 18
20 22 24 26 28 30 31 32 34 36 37 39 40 40 41 43 42 42 42 43 45 45 44 44 44 44 42 42 42 38 36 38 37 35 34 32 29 27 26 24 22 22 20 17 14 12 11 12 11 10 10 11 12 14 17 20 23 26 28 30 31 32 34 34 35 39 35 25 31 41 44 46 46 45 50 54 52 44 35 32 32 33 32 30 30 30 22 21
19 21 23 24 26 28 29 31 32 34 36 36 38 39 40 40 40 40 41 41 42 45 45 44 44 43 42 43 41 39 39 39 38 36 35 33 31 29 28 26 25 24 22 20 18 17 16 16 16 14 14 14 14 15 17 20 23 25 27 30 32 32 35 37 38 41 40 36 38 42 42 46 49 50 55 56 48 41 36 34 35 34 31 28 28 28 24 23
18 20 21 23 24 26 28 29 30 32 34 35 36 38 39 39 38 39 39 39 42 44 44 43 43 42 42 42 41 40 41 40 38 38 37 35 34 32 30 29 27 26 24 23 22 21 20 19 19 19 18 18 18 19 20 22 24 26 28 30 30 32 34 37 40 43 42 41 41 42 43 48 51 52 55 53 44 39 38 38 37 33 31 30 28 28 27 27
17 18 20 21 23 25 26 28 29 30 32 34 35 36 37 38 38 38 38 38 40 42 41 40 41 41 41 41 41 41 40 39 39 39 38 37 36 34 33 31 30 29 28 26 24 23 23 23 22 21 21 22 22 23 23 24 25 27 28 29 28 29 31 34 39 42 42 42 43 43 45 50 52 52 53 49 42 39 39 40 40 36 34 33 31 31 30 31
15 17 18 20 21 24 25 26 28 29 29 31 33 35 36 37 37 36 37 37 38 39 38 38 39 39 40 40 40 39 39 40 40 39 39 39 37 36 35 33 32 31 30 29 27 26 26 26 25 24 24 24 24 25 26 26 27 28 29 29 27 24 25 30 34 38 41 41 41 43 47 50 51 50 50 47 42 40 40 40 41 37 34 33 33 33 31 32
14 15 17 18 20 22 23 24 26 28 28 29 31 32 34 36 36 36 36 36 37 38 37 37 37 38 38 38 38 38 39 40 39 39 39 39 38 37 37 36 35 35 33 32 31 32 31 30 28 28 27 27 26 27 29 29 29 29 29 28 24 18 17 21 26 31 35 37 37 40 44 48 49 48 47 45 42 40 39 38 38 36 34 34 35 36 36 35
13 14 15 17 19 20 21 23 24 26 27 29 30 31 32 34 34 35 35 35 36 37 36 36 36 36 36 36 37 38 39 39 39 40 39 38 38 38 38 38 37 37 36 35 35 35 33 33 32 31 30 30 30 30 31 31 32 31 31 30 26 15 9 11 17 21 26 31 35 39 41 43 45 46 44 43 42 39 37 38 39 39 37 37 38 39 38 38
11 12 14 16 18 19 20 21 22 24 25 27 28 30 31 31 32 33 34 35 36 36 36 36 35 34 34 35 35 37 38 38 39 40 39 38 38 38 39 39 39 39 38 38 38 36 35 35 35 35 34 34 33 33 33 33 34 33 32 33 31 22 13 6 7 12 18 24 31 37 39 40 40 40 39 41 43 43 41 41 42 43 41 40 40 40 38 39
10 11 13 14 17 18 19 19 20 22 23 25 26 28 29 30 31 32 32 34 36 35 35 35 35 34 34 34 34 35 36 37 39 40 40 40 39 39 40 40 41 41 41 41 41 40 40 40 40 39 39 38 37 36 35 35 35 35 35 35 34 30 22 14 6 4 11 18 24 30 35 37 36 34 33 36 40 44 46 44 44 46 44 42 42 42 41 42
9 10 11 13 16 17 18 19 19 20 21 22 24 25 27 28 29 30 31 33 34 34 35 35 35 35 34 33 33 34 35 36 37 40 41 41 41 41 40 41 42 43 43 44 44 43 43 43 43 43 42 41 40 39 38 37 36 36 36 36 36 34 29 22 13 5 5 10 15 22 27 30 29 25 24 27 32 38 44 47 46 46 45 44 44 43 42 43
8 9 10 12 14 16 17 18 18 19 20 21 22 22 23 24 26 27 29 30 31 33 34 34 35 35 34 34 33 33 33 34 36 38 40 41 42 42 42 42 42 43 44 45 45 46 45 45 45 45 44 44 44 43 41 40 39 38 38 38 37 35 33 30 24 16 9 6 8 14 19 22 22 21 22 26 30 33 38 42 45 46 45 44 45 46 44 44
6 8 9 11 13 14 16 17 17 19 19 20 21 21 21 23 24 25 27 29 30 31 32 33 34 34 34 34 34 33 33 33 34 36 38 40 42 43 43 44 44 44 45 46 46 47 47 47 47 46 45 45 45 45 45 44 43 41 40 38 37 35 34 32 31 27 20 14 8 6 11 15 17 20 24 29 33 35 35 38 44 47 48 49 49 49 50 51
6 6 8 9 11 13 15 16 16 18 19 19 20 20 21 22 23 24 26 27 29 30 30 31 32 33 33 34 34 33 34 34 34 35 36 38 39 41 43 44 45 46 46 47 47 48 48 48 48 48 47 47 47 46 46 46 45 44 43 41 39 37 36 33 31 30 28 25 20 14 10 11 13 19 25 30 34 36 36 38 41 45 48 51 52 53 54 55
5 5 6 8 10 12 13 14 15 17 18 18 19 19 20 22 22 23 25 27 28 29 29 30 30 31 32 33 33 33 34 34 34 34 35 36 38 39 40 42 44 45 46 47 48 49 50 50 50 49 49 49 48 48 48 47 47 47 46 45 43 41 38 35 33 31 30 28 25 21 19 17 14 15 19 25 30 33 36 37 39 43 47 49 51 54 56 57
6 4 5 7 9 10 11 13 14 15 16 17 17 19 20 21 22 23 24 26 27 28 29 29 29 30 31 31 32 33 34 34 34 35 35 35 36 37 38 40 42 43 45 46 48 49 50 51 51 51 51 51 51 50 50 49 49 49 49 48 47 45 42 39 36 34 31 29 27 24 23 21 20 19 17 17 20 23 29 33 35 39 43 47 50 52 56 59
7 5 5 6 7 8 9 11 12 14 14 15 15 17 19 20 21 22 24 25 27 28 28 29 29 30 30 30 31 32 33 33 34 35 35 35 36 37 38 39 40 41 43 44 46 48 50 50 51 52 53 53 52 52 51 51 51 51 51 50 49 47 46 44 41 38 34 31 28 26 23 22 21 20 19 19 19 18 19 23 28 32 37 42 46 49 50 54
8 6 5 4 5 7 7 9 11 12 12 12 14 15 17 18 19 21 23 24 25 26 27 28 28 29 30 30 31 31 32 33 33 34 35 36 36 36 37 38 39 40 41 43 45 46 48 49 50 51 52 53 53 53 53 53 53 53 52 52 51 49 48 47 45 43 40 36 33 29 26 24 22 21 20 20 19 19 19 18 19 22 27 33 39 43 43 44
9 7 6 4 4 5 6 7 9 10 10 10 12 13 14 16 17 19 21 22 23 24 25 26 27 28 29 30 31 31 32 32 33 33 34 35 36 36 37 37 38 38 40 41 43 45 46 47 48 50 51 52 53 53 54 53 53 53 53 53 53 52 51 49 48 46 44 42 39 36 33 29 27 25 24 23 22 21 20 19 19 19 19 21 26 31 35 35
11 9 7 5 4 3 4 5 7 7 7 8 10 11 12 13 15 17 19 20 21 21 22 24 25 27 28 29 30 31 31 32 32 33 34 35 36 36 36 37 37 38 39 41 42 43 44 45 47 49 50 51 52 53 53 54 54 54 54 54 54 54 53 52 51 49 47 45 43 41 39 36 33 31 28 27 26 25 23 22 21 20 19 19 19 20 23 26
12 10 9 7 5 3 2 3 4 5 6 7 8 9 10 11 13 15 17 17 18 19 20 22 24 26 27 29 30 30 31 31 32 32 33 34 35 36 37 38 38 38 38 39 41 42 43 44 46 47 48 49 50 51 53 54 54 54 54 54 54 54 54 54 53 52 50 48 47 45 43 40 38 36 34 31 28 27 26 25 24 23 21 21 20 19 19 20
14 12 10 9 7 5 3 1 1 3 4 5 6 7 8 10 11 13 14 15 16 18 20 22 23 25 27 28 29 29 30 30 31 32 32 33 34 36 37 38 39 38 38 39 39 40 41 42 43 44 45 46 48 49 51 53 54 54 55 55 55 54 54 54 54 54 54 52 50 48 46 44 42 40 38 36 33 30 28 27 26 25 24 23 22 21 20 20
17 14 12 11 9 7 5 4 2 2 3 4 5 5 6 8 9 11 12 13 16 18 19 21 23 24 26 27 28 28 29 30 31 31 32 33 34 35 36 38 39 39 39 39 39 39 40 41 42 43 45 46 48 49 50 52 53 54 55 55 55 55 55 55 55 55 55 55 54 53 50 47 45 43 41 39 37 35 32 30 28 26 25 25 24 23 22 21
19 17 15 13 11 9 7 6 5 4 3 4 4 4 5 6 7 8 10 12 15 17 19 20 22 24 25 26 27 28 29 30 31 32 32 33 33 34 35 36 38 40 40 39 39 39 40 41 42 43 45 46 48 49 50 51 52 53 55 55 56 56 56 56 56 56 56 56 56 55 54 52 49 46 43 42 40 38 36 34 32 29 27 25 25 24 24 23
21 19 17 15 13 11 9 8 7 7 6 5 5 4 5 5 6 7 8 11 13 16 18 20 21 23 24 25 26 27 28 30 31 32 33 34 34 34 34 35 37 39 40 40 40 40 40 41 42 42 44 45 47 48 49 50 51 52 54 55 56 57 57 57 57 57 57 57 57 57 57 55 52 49 46 44 42 40 38 37 35 33 30 28 26 25 24 24
23 21 19 17 15 14 12 10 9 8 8 7 7 6 5 6 6 7 8 10 12 15 17 19 21 22 22 24 25 26 28 30 31 32 33 35 36 36 36 36 37 38 40 41 41 41 41 41 42 42 43 44 45 47 48 49 50 51 52 54 56 57 57 58 58 58 58 58 59 59 59 58 55 52 48 45 43 41 40 39 37 36 34 32 29 27 26 25
25 23 21 20 18 16 14 12 11 10 9 9 8 8 7 7 8 8 9 10 12 15 17 19 20 21 22 22 23 25 27 29 30 31 33 34 36 37 37 37 37 37 39 40 41 42 42 42 42 42 42 43 44 46 47 48 49 50 51 53 55 57 58 58 59 60 60 60 60 61 61 60 59 56 52 47 44 42 41 40 38 37 36 34 32 30 29 27
27 25 24 22 20 18 16 15 13 12 11 10 10 10 9 9 10 10 10 11 12 15 17 19 20 21 22 22 22 24 26 28 29 30 32 34 36 37 37 37 37 37 38 40 41 42 43 43 43 43 43 43 44 45 46 47 48 49 50 52 54 56 58 58 59 60 61 61 61 62 62 63 62 60 56 51 46 43 41 40 39 38 37 36 34 33 31 29
29 27 25 24 23 21 19 17 16 15 13 12 12 11 11 11 11 12 12 13 14 15 17 19 19 20 21 22 22 24 26 27 28 30 31 33 35 37 38 38 38 38 38 39 41 42 43 43 44 44 44 43 43 44 46 47 48 49 51 52 53 55 57 58 59 60 61 61 62 63 64 64 65 64 61 56 51 47 43 41 40 40 38 37 36 35 33 31
31 29 27 26 25 23 22 20 18 17 16 14 13 13 13 13 13 13 14 14 15 16 17 19 19 20 21 22 23 24 25 27 28 29 31 33 34 37 39 40 40 39 39 39 40 41 42 43 44 45 44 43 44 44 45 47 48 49 50 51 52 54 56 58 60 61 62 62 63 63 65 66 67 66 64 61 56 51 48 45 43 41 40 40 39 37 36 34
Wind_Direction
310 312 312 311 311 310 309 308 308 308 308 306 304 302 299 297 294 291 289 286 283 281 278 276 273 270 267 263 260 256 253 250 247 245 243 242 241 241 241 241 241 241 241 241 241 242 243 244 246 248 249 250 251 251 251 251 251 251 250 251 251 250 250 250 250 249 249 248 246 246 246 245 245 245 247 249 248 245 246 248 248 241 228 222 212 201 195 195
315 314 313 311 311 311 310 311 311 311 310 309 306 304 301 299 297 294 291 287 284 281 278 275 272 269 265 261 256 251 247 244 242 240 239 239 238 237 237 237 237 237 237 238 239 239 241 243 245 246 248 249 250 251 251 250 250 250 251 251 251 252 252 250 250 249 249 248 247 245 245 245 245 245 246 245 246 246 244 245 248 244 227 220 211 208 206 198
317 314 313 313 314 314 316 316 316 316 314 313 311 308 306 304 302 298 293 290 287 283 279 276 272 268 263 257 251 245 240 237 236 235 235 235 234 233 233 234 234 234 234 236 237 238 239 241 244 246 247 249 250 250 250 250 250 250 251 252 253 254 252 250 250 250 249 248 247 245 245 246 245 245 246 246 245 246 245 243 243 240 227 218 211 210 209 207
317 317 318 319 320 322 323 323 322 321 320 320 318 316 313 310 307 302 298 295 292 288 283 278 273 267 260 252 244 237 231 229 228 228 229 229 230 230 230 230 231 231 232 234 235 236 238 240 243 245 247 248 249 250 250 251 251 251 251 253 253 252 251 251 251 251 250 250 249 247 245 246 246 246 246 246 245 245 244 241 237 235 230 221 215 214 214 218
321 324 326 328 330 331 331 330 330 330 330 330 327 324 322 319 315 311 307 305 303 297 288 281 273 264 255 245 235 226 220 218 217 218 220 223 224 226 226 227 228 229 230 232 234 235 237 239 242 244 246 247 248 249 250 250 250 251 251 252 252 252 253 253 251 251 251 252 251 249 246 245 246 246 246 246 246 245 242 239 236 235 233 225 219 217 217 218
330 333 337 339 340 340 339 339 341 342 343 340 337 335 334 333 330 328 327 330 332 323 304 289 275 261 243 227 215 209 206 205 208 209 211 215 219 221 222 224 225 227 228 231 233 235 237 239 241 243 245 246 247 248 248 249 249 250 250 251 252 253 254 253 252 252 252 252 250 248 247 244 244 246 246 244 244 244 242 240 238 237 234 227 220 216 217 216
340 345 349 351 350 349 349 351 354 356 356 354 353 352 352 352 353 356 2 9 13 10 2 342 299 230 201 191 186 187 188 191 198 204 207 209 212 215 217 220 222 225 227 230 232 234 236 238 240 242 244 246 246 247 248 248 249 251 250 250 253 253 253 253 253 253 252 251 250 248 246 243 242 244 244 241 241 242 242 239 234 234 233 228 223 220 222 217
353 358 0 1 359 358 359 3 6 8 8 10 11 11 11 13 18 23 28 34 39 44 50 62 81 120 147 159 167 173 176 181 190 196 202 204 206 210 213 216 220 223 226 229 232 234 236 238 240 241 243 245 245 247 248 248 249 250 249 249 252 252 251 253 252 251 251 250 248 246 244 241 239 241 242 241 241 242 242 239 233 231 231 231 231 230 230 224
6 8 9 9 8 7 9 12 16 18 19 23 25 26 29 32 36 38 41 46 52 59 65 73 88 110 128 147 154 164 172 175 183 189 195 199 201 206 210 214 218 222 226 229 232 234 236 237 239 241 242 243 244 246 246 247 247 246 246 247 250 251 251 253 252 251 250 248 247 244 242 239 237 239 240 240 241 241 240 239 235 232 231 232 235 236 234 231
15 16 16 16 15 16 17 19 23 24 27 31 34 35 39 41 43 45 48 53 60 67 72 75 83 101 118 140 146 149 166 170 173 180 185 190 194 199 204 210 215 219 224 227 230 232 235 236 238 239 240 242 243 245 246 245 245 245 245 247 249 251 252 252 251 250 249 247 245 243 240 237 237 238 238 239 240 241 240 239 238 237 234 232 235 235 234 233
22 22 22 22 20 22 23 24 27 28 32 37 39 41 45 47 48 51 54 58 64 72 77 78 80 91 107 122 130 136 152 160 163 168 170 176 183 189 196 204 210 216 220 224 227 229 232 234 236 237 239 240 241 243 244 244 245 245 245 247 248 249 249 249 249 248 247 246 244 242 239 236 237 237 238 240 240 240 240 239 240 239 237 234 232 233 233 234
26 26 26 25 24 26 28 29 31 32 35 41 44 46 49 52 54 55 58 61 64 70 77 81 82 87 97 102 108 119 131 141 147 151 153 160 170 179 189 198 205 213 218 222 226 228 232 234 237 239 240 242 242 244 245 246 246 245 246 246 247 247 247 247 246 246 246 244 243 241 238 237 237 237 237 239 240 240 239 239 239 238 238 235 231 232 233 237
29 29 30 29 28 29 31 33 34 35 37 43 48 50 52 55 56 58 60 62 64 67 72 76 80 85 90 96 103 110 118 125 130 135 141 150 161 174 186 197 207 217 223 230 234 237 241 243 245 247 248 249 249 250 250 250 249 248 247 246 247 247 246 246 246 246 246 245 245 242 239 238 238 237 236 238 240 240 238 237 239 239 238 236 233 234 235 238
32 32 33 33 31 31 33 35 36 38 39 43 48 51 54 56 57 60 60 62 64 65 68 70 74 78 83 89 95 100 106 111 115 120 125 132 143 157 177 196 213 226 236 243 246 249 251 252 253 254 254 254 253 253 253 254 253 251 249 248 248 246 245 245 244 245 245 244 245 242 239 240 240 239 236 236 240 240 239 238 239 240 240 238 234 234 235 236
34 34 35 35 34 34 36 38 38 40 41 44 48 52 56 57 59 61 62 62 63 64 66 68 70 73 76 80 85 89 92 96 99 102 105 111 116 125 137 158 195 222 240 250 256 258 260 262 263 263 262 261 258 256 254 253 252 251 250 249 248 247 246 243 239 243 242 239 242 242 240 239 239 241 237 235 240 241 241 241 240 241 242 241 237 233 235 236
36 36 37 37 37 37 38 40 41 43 43 44 48 52 56 59 60 61 64 64 64 64 66 67 68 70 71 73 76 78 81 83 84 85 86 87 88 88 87 86 83 73 1 295 288 281 279 277 277 276 274 272 268 263 259 256 254 253 253 251 249 247 246 242 238 243 244 239 243 244 240 238 239 243 240 236 241 243 242 242 241 241 242 243 242 237 237 238
39 39 39 39 39 39 40 42 43 45 46 45 48 51 55 59 61 61 63 64 65 66 67 67 68 68 69 70 69 70 72 73 72 72 71 71 70 70 68 67 63 60 52 39 16 343 315 301 295 287 283 281 277 272 268 266 264 262 260 256 253 252 252 250 243 246 250 244 241 245 243 239 240 244 242 238 241 243 242 243 242 241 241 242 244 241 239 239
42 42 42 42 42 41 41 42 44 46 48 48 48 50 53 57 60 61 63 64 64 66 67 67 67 68 68 69 69 68 69 69 69 67 67 65 64 63 62 59 56 54 49 43 37 26 8 348 335 319 310 307 297 288 281 277 275 271 267 261 258 256 257 259 252 247 252 248 241 245 246 241 240 243 244 242 243 244 243 244 245 244 243 243 244 243 241 240
45 44 44 44 44 43 42 44 45 47 49 50 50 50 53 55 59 60 62 64 63 64 65 65 65 66 66 67 67 68 68 69 69 67 66 65 64 62 61 60 58 56 53 47 44 39 28 16 8 2 351 334 319 308 298 289 283 278 273 267 262 258 257 261 259 247 246 251 247 245 248 246 244 246 248 247 244 247 248 245 245 246 245 243 244 244 242 240
48 47 47 46 46 45 44 45 46 48 50 51 51 51 53 54 58 59 60 62 63 62 63 64 64 64 64 64 63 64 65 65 66 65 64 62 61 59 57 56 54 53 51 45 41 39 34 24 12 1 348 334 325 314 306 298 290 284 277 269 263 259 258 259 261 253 241 247 249 245 246 249 250 249 250 252 246 245 250 246 243 246 247 246 246 245 245 244
50 50 50 49 49 47 46 46 47 49 50 52 52 53 54 54 57 59 60 62 63 62 63 65 64 64 65 64 63 62 62 63 64 64 63 60 58 56 53 51 49 49 47 42 36 34 32 27 13 358 345 335 327 317 310 302 293 287 280 272 265 259 257 255 258 259 247 240 245 247 245 245 250 251 250 254 249 240 245 247 243 245 249 249 249 249 251 253
53 52 52 52 52 50 47 46 47 49 50 52 53 53 55 55 55 59 59 62 65 64 63 65 65 66 66 66 65 64 63 64 65 65 64 62 60 58 55 54 51 48 48 45 37 33 34 28 15 3 348 334 323 316 310 303 295 289 282 277 271 263 260 257 257 262 256 240 238 244 247 243 245 249 250 252 250 241 240 246 245 246 251 253 254 255 253 255
56 54 54 54 54 53 51 48 48 50 52 53 54 54 55 56 55 57 58 61 64 65 64 64 65 65 64 64 64 63 61 62 63 61 61 61 60 59 57 56 54 52 52 50 44 39 36 27 16 6 347 328 315 307 300 294 289 286 284 282 279 274 271 266 261 262 262 250 235 237 244 247 244 247 249 250 251 247 242 248 253 253 255 256 257 256 248 235
59 56 55 55 55 55 53 51 49 50 52 54 55 54 55 57 56 56 57 58 62 64 64 63 63 63 63 63 63 62 60 60 60 59 59 58 57 55 53 52 51 51 51 49 47 41 34 28 20 10 351 334 318 306 299 294 287 283 283 283 282 279 273 266 260 258 258 254 242 238 242 247 247 245 247 248 252 256 254 254 257 255 254 254 253 250 241 228
62 59 57 56 56 56 55 53 51 51 53 54 55 55 56 58 56 56 57 58 61 64 63 62 63 63 63 63 63 62 60 60 60 60 59 57 56 53 51 48 47 46 43 40 40 35 32 29 22 13 2 351 336 322 315 311 303 297 291 288 285 278 270 263 257 255 253 248 244 242 241 244 246 245 247 251 254 259 259 256 255 253 252 255 256 251 237 223
65 61 59 58 58 58 56 55 54 53 53 55 56 57 58 59 58 57 58 59 61 63 63 63 63 63 62 62 62 60 59 59 58 58 57 55 53 52 49 46 44 42 39 36 33 29 28 25 19 14 7 359 350 340 335 330 322 315 307 299 291 279 267 259 254 252 250 245 241 242 242 243 244 245 250 255 258 259 259 256 254 253 254 256 257 253 239 221
67 64 61 59 58 58 57 56 56 54 54 54 56 57 58 60 59 58 58 60 61 64 65 65 64 63 62 61 60 59 58 58 56 55 54 53 51 50 48 44 42 40 37 34 30 26 25 22 17 15 10 4 359 354 349 343 336 330 322 313 301 284 267 256 252 249 246 244 241 240 241 244 245 246 250 254 256 257 256 255 254 254 256 254 250 248 242 227
69 66 63 61 59 58 57 57 57 57 56 56 56 57 58 59 59 58 59 60 62 64 64 64 64 63 61 60 59 58 58 57 56 54 53 51 49 48 47 45 43 41 38 35 30 28 26 22 18 15 12 8 4 0 357 353 348 342 337 330 316 294 271 255 249 247 245 242 241 240 239 242 245 247 249 252 253 255 257 257 256 253 249 246 244 241 238 232
72 68 65 63 61 59 58 57 58 58 58 57 57 57 57 57 58 59 59 60 61 62 62 62 62 61 61 59 58 57 57 56 55 54 53 51 50 49 48 45 43 41 39 36 33 30 26 22 20 18 14 11 8 5 3 1 357 352 350 348 336 312 278 255 246 246 244 241 243 244 241 242 244 245 247 249 250 252 255 255 255 250 244 242 243 240 239 240
76 71 68 66 63 60 58 57 57 58 58 58 58 58 58 57 57 57 57 59 60 60 61 61 60 60 60 59 58 56 55 55 54 54 52 51 50 49 48 47 45 42 40 38 36 34 29 25 23 21 17 15 13 11 9 6 4 1 1 3 0 346 310 263 244 243 244 240 241 243 244 245 246 246 247 247 246 246 248 250 250 249 246 244 245 245 244 244
81 74 71 69 66 62 58 57 56 56 57 57 58 58 59 58 57 57 58 59 59 59 60 60 60 60 59 59 57 56 55 54 53 53 52 51 50 49 48 47 46 44 42 40 39 37 35 32 28 25 22 20 17 14 13 11 9 8 10 14 15 14 9 342 265 246 243 242 241 242 245 248 248 247 247 248 246 242 243 246 249 250 247 244 245 248 246 244
86 77 73 70 67 64 60 57 56 57 56 56 57 58 59 59 58 58 58 58 58 58 59 59 58 58 58 57 57 56 54 53 52 51 51 50 49 48 47 46 45 44 42 41 39 37 36 34 32 30 27 24 21 19 17 15 13 14 16 20 23 25 27 23 4 265 243 244 245 246 249 251 252 251 251 253 252 247 243 245 248 250 249 246 246 248 247 246
92 81 74 71 69 65 62 59 57 57 56 55 55 56 57 57 58 57 57 58 58 58 58 58 58 57 56 56 55 55 53 51 50 50 49 49 49 48 47 46 45 43 42 41 40 39 38 36 34 32 30 28 25 24 21 19 18 18 20 23 26 30 33 32 29 12 281 263 255 254 255 255 255 255 255 259 260 253 247 245 247 249 250 247 244 245 245 245
99 87 77 74 72 68 64 61 58 57 56 55 54 53 52 53 54 55 56 57 58 57 56 56 56 55 55 55 54 53 52 50 49 48 48 48 48 48 47 47 45 44 42 41 40 40 39 37 36 34 32 31 29 27 25 24 23 22 23 26 28 30 34 37 36 31 10 327 281 267 265 259 253 248 248 253 258 258 253 248 246 247 246 244 242 242 241 241
103 93 84 78 76 72 68 63 59 57 56 54 53 52 51 52 54 54 54 55 56 55 55 54 54 53 53 52 52 52 51 50 48 47 46 46 46 47 46 46 46 45 44 43 41 41 40 38 38 36 34 33 32 31 29 28 27 25 25 27 28 31 34 36 38 38 34 27 11 317 286 274 261 251 249 253 257 261 260 255 249 247 246 245 243 244 245 245
112 97 90 84 80 76 71 65 61 58 56 54 53 52 52 53 53 53 53 53 53 53 53 52 51 51 50 50 49 49 49 49 47 46 44 43 43 44 45 45 45 45 44 43 42 41 41 39 38 37 36 34 34 33 32 31 30 30 29 28 28 30 31 32 36 38 40 41 41 34 6 329 295 273 265 263 263 264 264 261 255 251 249 249 248 247 248 248
129 105 92 88 84 78 74 69 63 59 56 54 53 53 53 53 52 51 51 51 51 50 49 49 48 48 48 47 46 46 45 46 45 44 43 41 40 40 41 42 43 43 43 42 41 41 41 40 39 38 37 36 35 33 33 32 32 32 32 31 30 29 29 28 30 33 36 40 44 43 33 17 354 322 296 282 276 273 270 266 261 255 253 252 251 249 247 247
148 126 102 92 86 80 77 73 67 62 58 54 54 54 53 52 51 51 50 50 50 48 48 47 45 45 44 44 43 43 42 42 42 42 41 39 38 37 37 38 39 40 40 40 40 40 40 40 39 38 38 37 36 35 33 33 32 32 32 32 32 31 30 28 28 29 29 32 36 37 32 24 17 7 350 328 309 292 279 272 266 260 256 255 254 252 249 246
164 150 124 100 90 84 79 76 71 65 60 57 55 54 53 52 51 50 50 49 49 48 47 45 43 42 41 40 40 39 39 38 38 39 38 38 36 35 34 35 35 36 37 37 38 38 38 37 37 36 37 37 36 36 35 34 33 33 32 32 31 31 31 30 30 28 26 24 26 27 25 20 16 11 4 357 348 334 312 290 277 268 263 260 259 258 255 250
175 168 153 123 101 89 81 76 72 67 63 60 57 54 53 52 50 50 49 48 47 46 44 43 41 40 39 38 37 37 36 35 34 34 34 35 34 33 32 32 32 32 33 33 34 35 36 35 35 35 35 35 35 35 35 35 34 34 33 32 31 30 30 30 30 29 27 25 22 20 17 12 8 5 1 358 354 351 345 331 312 294 279 269 264 264 263 258
187 181 174 156 123 100 85 75 71 67 64 62 59 55 53 51 48 47 45 45 43 43 42 40 39 38 37 36 36 34 33 33 32 31 30 30 30 30 30 30 29 29 29 30 30 31 32 32 33 33 33 33 33 33 34 34 35 35 34 32 31 30 29 28 28 27 26 25 23 20 17 11 6 2 359 355 353 350 348 344 341 334 319 299 282 275 273 267
197 191 188 183 163 130 99 79 69 65 63 60 56 53 50 47 45 43 41 40 38 38 39 38 37 35 34 33 33 32 31 30 29 28 27 26 26 27 27 28 27 27 27 27 27 28 28 28 28 29 30 30 30 30 31 32 33 33 33 32 31 30 29 28 27 26 24 22 21 21 19 15 10 6 1 356 351 349 347 345 342 341 339 334 322 307 295 285
205 202 199 198 193 178 143 90 67 60 55 50 48 47 45 41 38 37 35 32 30 30 33 34 34 32 30 29 29 29 28 27 26 25 25 23 23 23 23 24 24 24 24 25 25 26 25 25 25 25 26 26 27 28 28 29 30 30 31 31 30 29 28 27 26 26 24 21 19 18 17 15 13 11 7 2 355 349 346 344 342 340 339 338 336 332 324 314
213 210 209 208 209 208 205 209 45 45 40 37 34 34 38 37 31 28 25 22 20 21 24 26 29 29 27 26 25 25 25 25 23 22 22 21 20 20 20 20 20 20 21 22 23 23 23 23 24 24 24 24 24 25 25 26 26 27 27 27 28 28 27 26 25 24 24 22 19 17 15 13 12 11 9 7 2 356 349 344 341 340 338 336 335 333 331 327
217 217 217 216 218 222 230 245 276 345 9 17 16 13 20 29 26 17 11 10 11 13 15 18 21 24 24 23 22 22 22 22 21 20 19 18 16 16 16 17 16 16 17 18 19 19 20 20 20 21 21 21 21 21 22 22 22 23 23 24 24 25 25 24 23 22 22 21 19 17 15 12 10 8 7 6 4 0 356 350 344 340 337 335 333 331 328 326
218 220 222 222 224 229 237 250 264 285 314 334 345 349 353 5 13 6 0 1 3 5 7 11 15 17 19 19 19 19 19 19 19 18 16 15 14 12 12 13 13 13 13 14 15 15 16 16 17 17 17 17 18 18 18 19 19 19 19 20 20 21 21 22 21 21 20 19 18 16 14 12 10 7 4 3 2 0 358 354 349 343 338 333 330 328 326 324
217 220 223 225 228 231 236 245 255 266 284 305 316 323 326 331 342 348 350 353 357 359 0 4 8 11 13 13 14 16 17 16 16 15 14 12 12 11 10 9 10 10 10 11 12 12 12 13 14 14 15 15 15 15 15 15 16 15 16 16 16 17 17 18 18 18 18 17 16 15 14 12 10 7 4 1 359 358 356 354 351 346 342 336 330 326 323 321
217 220 224 226 228 231 235 240 248 260 274 291 301 304 302 304 313 324 334 342 349 353 354 356 1 5 7 8 8 11 15 14 13 12 12 11 9 8 8 7 6 6 7 7 8 9 9 10 10 11 12 12 12 12 13 12 12 12 12 13 13 14 14 14 15 15 15 15 14 13 12 11 9 7 4 1 359 356 354 352 350 347 343 339 333 327 321 318
218 220 224 227 229 231 235 240 247 257 268 280 290 295 293 287 291 301 315 327 337 344 347 349 352 356 360 2 3 6 10 12 10 8 9 9 8 6 5 4 3 2 3 4 5 6 6 7 8 8 9 9 9 9 10 10 10 9 9 10 10 11 11 11 11 12 12 12 11 11 10 9 8 6 4 1 358 355 352 349 347 345 342 339 335 330 324 318
218 220 223 227 230 233 236 241 247 255 264 273 279 287 290 285 280 285 298 311 322 332 339 342 344 348 352 355 357 0 4 7 6 5 4 4 5 4 4 3 2 360 359 360 1 3 4 4 5 5 6 6 6 5 6 7 7 7 7 7 7 8 8 8 8 9 9 9 8 8 8 7 6 5 3 1 358 355 351 348 345 343 341 338 334 330 325 319
220 222 224 227 231 234 237 242 247 253 261 268 274 280 287 287 285 283 287 297 308 317 329 336 338 341 344 347 350 354 357 360 1 1 1 1 1 1 1 1 0 359 358 357 358 360 1 2 3 3 3 3 3 2 3 4 4 4 5 5 5 5 5 6 6 6 7 7 6 6 5 5 4 3 1 360 357 355 351 347 343 341 339 336 333 330 326 320
222 223 225 227 231 234 237 242 247 252 258 265 271 277 283 287 290 289 288 291 298 306 318 330 334 336 338 340 342 347 351 353 355 356 358 359 359 358 358 358 358 358 357 356 356 357 358 359 0 2 2 0 360 360 360 1 2 2 2 2 2 3 3 3 4 4 5 5 4 3 3 3 2 2 0 358 356 354 351 347 343 340 338 335 333 329 325 320
Height
10705 10699 10693 10686 10679 10672 10664 10655 10647 10640 10632 10624 10616 10609 10603 10598 10594 10590 10587 10585 10583 10582 10581 10581 10582 10583 10585 10587 10590 10594 10597 10601 10604 10607 10610 10614 10617 10621 10625 10628 10632 10635 10638 10641 10644 10647 10650 10652 10654 10657 10659 10661 10664 10666 10668 10669 10670 10670 10670 10670 10671 10672 10674 10677 10679 10680 10683 10685 10688 10691 10693 10695 10696 10698 10700 10700 10702 10704 10705 10707 10710 10715 10718 10719 10720 10720 10718 10721
10702 10697 10690 10684 10676 10668 10660 10651 10643 10634 10626 10617 10610 10603 10598 10593 10589 10585 10582 10580 10578 10577 10577 10577 10578 10579 10581 10583 10586 10589 10593 10597 10600 10604 10607 10611 10614 10618 10622 10625 10628 10632 10635 10638 10641 10644 10646 10649 10651 10654 10656 10658 10661 10662 10664 10665 10666 10666 10666 10666 10667 10668 10670 10673 10674 10675 10678 10681 10684 10687 10689 10692 10693 10696 10696 10697 10699 10700 10702 10705 10707 10710 10714 10715 10716 10715 10712 10712
10701 10695 10688 10681 10674 10665 10656 10647 10638 10629 10620 10612 10604 10598 10593 10589 10585 10582 10579 10577 10575 10574 10574 10574 10575 10576 10578 10580 10583 10586 10590 10594 10597 10601 10605 10608 10612 10616 10619 10622 10626 10629 10632 10635 10638 10641 10643 10646 10648 10651 10653 10656 10658 10659 10661 10662 10662 10663 10662 10663 10665 10665 10665 10668 10669 10671 10674 10676 10679 10683 10686 10688 10691 10692 10692 10693 10696 10697 10699 10702 10704 10706 10710 10711 10713 10712 10711 10712
10700 10693 10687 10679 10671 10663 10653 10644 10635 10625 10616 10608 10600 10595 10590 10586 10582 10579 10577 10575 10573 10572 10572 10572 10573 10574 10575 10577 10580 10584 10588 10591 10595 10599 10603 10606 10610 10613 10617 10620 10623 10626 10629 10633 10636 10638 10641 10644 10646 10648 10651 10653 10655 10656 10657 10658 10659 10659 10659 10661 10662 10660 10661 10664 10666 10667 10670 10672 10675 10680 10683 10685 10687 10688 10688 10690 10692 10694 10696 10699 10701 10703 10706 10707 10709 10709 10709 10710
10698 10692 10685 10677 10669 10661 10651 10642 10632 10622 10613 10604 10598 10592 10588 10584 10580 10578 10575 10573 10572 10571 10571 10571 10572 10572 10574 10576 10579 10582 10586 10590 10593 10597 10601 10605 10608 10612 10615 10618 10621 10624 10628 10631 10634 10636 10639 10641 10644 10646 10648 10650 10652 10653 10654 10655 10656 10655 10657 10659 10657 10656 10659 10661 10662 10664 10667 10669 10672 10676 10679 10682 10683 10683 10684 10687 10689 10690 10692 10695 10696 10699 10702 10703 10705 10706 10706 10707
10697 10691 10684 10676 10668 10659 10650 10641 10630 10620 10611 10603 10596 10591 10586 10583 10579 10577 10574 10573 10571 10571 10570 10571 10571 10572 10574 10576 10579 10582 10585 10589 10593 10596 10599 10603 10607 10610 10613 10616 10620 10623 10626 10629 10632 10635 10637 10639 10642 10644 10646 10647 10649 10650 10651 10652 10652 10652 10655 10656 10652 10654 10656 10657 10659 10662 10664 10666 10669 10672 10675 10678 10679 10679 10681 10684 10685 10685 10687 10692 10693 10694 10697 10700 10701 10703 10704 10705
10696 10690 10683 10675 10667 10659 10650 10640 10629 10619 10610 10603 10596 10591 10586 10582 10579 10576 10574 10573 10572 10571 10571 10571 10572 10573 10574 10576 10579 10582 10585 10589 10592 10595 10599 10602 10606 10609 10612 10616 10619 10622 10625 10628 10631 10633 10635 10637 10639 10641 10643 10645 10646 10647 10648 10649 10649 10650 10652 10651 10650 10652 10653 10653 10657 10659 10661 10663 10665 10668 10671 10673 10675 10676 10677 10679 10680 10680 10683 10688 10690 10690 10693 10695 10697 10698 10700 10701
10696 10689 10682 10675 10667 10658 10650 10640 10630 10620 10612 10604 10598 10592 10587 10584 10580 10577 10575 10574 10572 10572 10572 10572 10572 10573 10575 10577 10579 10582 10585 10589 10592 10595 10599 10602 10606 10609 10612 10616 10619 10622 10624 10627 10629 10631 10633 10635 10637 10639 10641 10642 10643 10644 10645 10646 10647 10648 10648 10648 10647 10648 10650 10651 10654 10656 10657 10660 10661 10664 10667 10669 10672 10672 10673 10675 10676 10677 10680 10683 10686 10687 10689 10691 10692 10693 10695 10696
10695 10689 10682 10675 10667 10659 10650 10641 10632 10622 10614 10607 10600 10595 10590 10586 10582 10579 10577 10575 10574 10573 10573 10573 10574 10575 10576 10578 10580 10583 10587 10590 10593 10597 10600 10604 10607 10610 10613 10616 10618 10621 10624 10626 10628 10629 10631 10633 10634 10636 10638 10639 10641 10641 10642 10643 10644 10644 10645 10645 10645 10645 10647 10649 10651 10653 10655 10656 10658 10661 10663 10666 10668 10668 10670 10672 10672 10674 10675 10677 10680 10683 10685 10686 10686 10688 10690 10692
10695 10689 10682 10675 10668 10660 10651 10643 10634 10626 10618 10610 10604 10598 10593 10588 10585 10582 10580 10578 10577 10576 10575 10576 10576 10577 10579 10580 10582 10585 10589 10592 10595 10599 10601 10605 10607 10610 10613 10615 10618 10620 10622 10624 10625 10627 10628 10630 10632 10633 10635 10636 10638 10638 10639 10640 10640 10641 10642 10643 10643 10644 10645 10646 10648 10650 10651 10653 10655 10657 10660 10662 10664 10665 10666 10668 10669 10669 10670 10673 10676 10678 10680 10682 10682 10683 10686 10687
10696 10690 10683 10676 10669 10661 10653 10645 10637 10630 10622 10614 10608 10602 10597 10592 10589 10586 10584 10582 10580 10579 10579 10579 10579 10580 10581 10584 10585 10587 10591 10594 10597 10600 10602 10605 10608 10610 10612 10615 10617 10619 10620 10622 10623 10625 10626 10627 10629 10630 10632 10633 10635 10635 10636 10637 10637 10639 10640 10640 10641 10641 10642 10643 10645 10646 10648 10649 10652 10654 10656 10659 10659 10661 10663 10664 10664 10665 10667 10670 10671 10673 10675 10678 10679 10678 10680 10682
10696 10691 10684 10678 10672 10664 10656 10648 10641 10634 10627 10620 10613 10607 10602 10597 10594 10591 10588 10586 10585 10583 10582 10582 10582 10583 10584 10586 10588 10590 10593 10596 10599 10602 10604 10606 10608 10610 10612 10614 10616 10617 10619 10620 10621 10623 10624 10626 10627 10629 10630 10632 10633 10634 10634 10635 10636 10637 10638 10638 10638 10638 10639 10640 10641 10643 10644 10646 10648 10651 10653 10655 10656 10658 10659 10659 10660 10661 10664 10666 10667 10669 10671 10674 10675 10674 10676 10678
10697 10692 10686 10680 10674 10667 10660 10652 10645 10639 10632 10625 10619 10613 10608 10603 10599 10596 10593 10591 10590 10588 10587 10587 10587 10587 10588 10589 10592 10594 10596 10599 10601 10603 10606 10608 10610 10612 10613 10615 10616 10618 10619 10621 10622 10624 10625 10627 10628 10629 10630 10631 10632 10633 10633 10633 10634 10635 10635 10635 10635 10636 10636 10637 10639 10640 10641 10644 10645 10647 10650 10651 10652 10654 10655 10655 10657 10657 10659 10662 10663 10665 10666 10669 10672 10671 10673 10675
10698 10693 10688 10682 10676 10670 10663 10656 10650 10643 10637 10631 10625 10619 10614 10609 10605 10602 10599 10597 10595 10594 10593 10592 10592 10592 10593 10594 10596 10598 10600 10602 10604 10606 10608 10610 10612 10614 10615 10617 10618 10620 10621 10622 10624 10625 10626 10627 10628 10629 10629 10630 10631 10631 10632 10632 10632 10633 10633 10633 10633 10633 10633 10635 10638 10637 10638 10641 10641 10643 10646 10647 10648 10649 10650 10652 10653 10653 10656 10659 10661 10662 10663 10665 10668 10669 10669 10671
10699 10695 10689 10684 10679 10673 10667 10660 10654 10648 10642 10636 10630 10625 10619 10615 10611 10608 10605 10603 10602 10600 10599 10598 10598 10598 10599 10600 10601 10602 10604 10606 10607 10609 10611 10612 10614 10615 10617 10618 10619 10620 10622 10623 10624 10625 10625 10626 10627 10627 10628 10629 10629 10630 10630 10629 10629 10630 10630 10631 10631 10630 10630 10633 10635 10632 10634 10637 10637 10640 10642 10642 10644 10643 10646 10650 10649 10651 10654 10656 10658 10659 10660 10661 10663 10666 10666 10668
10701 10696 10691 10686 10681 10676 10670 10664 10658 10652 10647 10642 10636 10631 10625 10621 10618 10615 10612 10609 10608 10607 10605 10605 10604 10605 10605 10606 10606 10607 10608 10610 10611 10612 10614 10615 10616 10617 10619 10620 10621 10621 10622 10623 10624 10624 10625 10625 10626 10626 10627 10627 10627 10628 10628 10627 10627 10627 10628 10628 10628 10627 10627 10629 10631 10628 10630 10635 10635 10636 10637 10638 10640 10639 10642 10647 10646 10648 10651 10653 10655 10656 10657 10657 10659 10663 10664 10665
10702 10698 10693 10689 10683 10679 10673 10667 10662 10656 10651 10646 10641 10636 10632 10627 10623 10621 10618 10616 10615 10613 10612 10611 10610 10611 10611 10611 10611 10612 10613 10614 10615 10616 10617 10618 10619 10620 10621 10621 10622 10623 10623 10623 10624 10624 10624 10625 10625 10625 10625 10625 10626 10626 10625 10625 10625 10626 10627 10627 10626 10625 10624 10626 10629 10627 10628 10633 10633 10631 10633 10636 10636 10635 10638 10643 10643 10644 10647 10649 10651 10653 10653 10654 10656 10659 10661 10661
10703 10699 10695 10691 10686 10681 10676 10671 10666 10660 10655 10651 10647 10642 10638 10633 10629 10627 10624 10622 10621 10619 10617 10616 10616 10617 10616 10615 10616 10617 10617 10618 10619 10620 10620 10621 10622 10622 10623 10623 10624 10624 10624 10624 10624 10624 10624 10624 10624 10624 10624 10624 10624 10624 10624 10624 10623 10624 10624 10624 10624 10623 10622 10623 10626 10628 10627 10629 10630 10628 10630 10632 10631 10631 10635 10639 10639 10640 10644 10646 10648 10649 10650 10651 10652 10655 10657 10658
10705 10701 10697 10693 10689 10684 10680 10675 10670 10665 10660 10655 10652 10648 10644 10639 10635 10632 10630 10627 10626 10624 10621 10621 10622 10622 10621 10620 10621 10622 10622 10622 10622 10623 10624 10624 10625 10625 10626 10625 10625 10626 10625 10625 10625 10625 10624 10624 10624 10624 10624 10623 10623 10622 10622 10622 10621 10621 10621 10622 10622 10621 10620 10619 10621 10624 10625 10625 10626 10626 10626 10627 10628 10630 10632 10633 10634 10638 10640 10642 10644 10645 10646 10647 10649 10651 10653 10656
10706 10703 10699 10695 10691 10687 10683 10678 10674 10669 10665 10660 10657 10653 10649 10646 10641 10637 10636 10633 10631 10629 10626 10626 10627 10626 10625 10625 10627 10626 10626 10626 10626 10626 10627 10627 10628 10628 10628 10628 10627 10627 10626 10626 10626 10625 10625 10625 10624 10623 10623 10623 10622 10621 10621 10620 10619 10618 10618 10618 10618 10618 10617 10616 10615 10617 10622 10622 10621 10622 10623 10623 10624 10627 10628 10626 10630 10636 10635 10637 10641 10640 10642 10644 10645 10648 10651 10655
10708 10704 10701 10697 10694 10690 10686 10682 10678 10673 10669 10665 10662 10658 10654 10652 10647 10643 10643 10639 10635 10634 10634 10632 10632 10631 10630 10631 10631 10630 10631 10631 10629 10630 10630 10630 10630 10630 10631 10630 10629 10628 10628 10628 10627 10626 10625 10625 10625 10624 10623 10622 10621 10620 10619 10619 10617 10616 10615 10614 10614 10614 10612 10612 10610 10610 10617 10618 10617 10618 10619 10620 10620 10621 10623 10620 10622 10630 10630 10631 10637 10637 10638 10640 10642 10646 10650 10656
10709 10706 10703 10699 10696 10693 10689 10686 10682 10678 10674 10670 10666 10663 10660 10657 10653 10650 10650 10645 10640 10640 10641 10638 10637 10637 10636 10636 10635 10635 10637 10635 10633 10633 10633 10632 10633 10634 10634 10633 10632 10631 10630 10629 10628 10627 10626 10625 10625 10624 10623 10621 10620 10619 10617 10616 10615 10613 10612 10610 10610 10609 10607 10608 10607 10605 10608 10613 10614 10613 10613 10617 10617 10615 10616 10613 10613 10621 10627 10628 10632 10635 10635 10637 10641 10644 10649 10655
10710 10707 10704 10701 10698 10695 10692 10689 10685 10682 10678 10674 10670 10668 10664 10661 10659 10657 10656 10651 10646 10646 10646 10643 10642 10641 10640 10640 10639 10640 10642 10639 10636 10637 10636 10635 10636 10637 10637 10635 10635 10633 10632 10631 10630 10629 10627 10626 10625 10623 10622 10621 10619 10617 10615 10614 10612 10610 10608 10607 10606 10604 10604 10604 10603 10601 10602 10608 10612 10609 10608 10611 10612 10612 10610 10606 10606 10616 10625 10628 10631 10633 10633 10635 10638 10640 10646 10649
10711 10709 10706 10703 10700 10697 10695 10692 10688 10685 10682 10678 10675 10673 10668 10665 10664 10662 10660 10657 10653 10650 10649 10648 10646 10645 10646 10645 10643 10645 10646 10642 10640 10640 10639 10639 10640 10640 10639 10638 10636 10634 10633 10633 10631 10630 10628 10627 10625 10623 10622 10620 10618 10616 10613 10611 10608 10607 10605 10603 10601 10600 10599 10598 10597 10596 10597 10603 10607 10605 10606 10606 10606 10608 10603 10599 10604 10614 10623 10628 10628 10628 10628 10631 10633 10635 10641 10642
10713 10710 10708 10705 10702 10699 10697 10694 10691 10688 10685 10682 10679 10676 10672 10670 10668 10666 10664 10663 10659 10654 10652 10652 10651 10651 10651 10648 10648 10650 10648 10646 10645 10644 10643 10643 10643 10642 10641 10640 10638 10636 10635 10634 10632 10630 10628 10626 10625 10623 10621 10618 10616 10613 10611 10608 10605 10603 10601 10597 10596 10594 10592 10591 10590 10590 10591 10595 10598 10599 10603 10601 10599 10600 10595 10595 10606 10615 10621 10623 10622 10623 10626 10628 10629 10631 10636 10638
10714 10712 10710 10707 10704 10701 10699 10696 10694 10691 10689 10686 10683 10680 10677 10674 10673 10671 10669 10668 10663 10658 10657 10658 10657 10657 10655 10653 10653 10653 10651 10650 10650 10648 10647 10646 10645 10644 10643 10641 10640 10638 10636 10634 10632 10631 10628 10626 10624 10622 10620 10617 10614 10611 10608 10605 10602 10599 10595 10592 10590 10587 10584 10584 10583 10583 10586 10589 10592 10594 10597 10595 10592 10594 10592 10596 10609 10616 10617 10617 10618 10621 10624 10625 10627 10628 10631 10633
10715 10713 10711 10709 10706 10704 10701 10699 10697 10694 10692 10689 10687 10684 10681 10678 10676 10675 10673 10671 10667 10664 10663 10663 10662 10661 10659 10658 10657 10656 10655 10654 10652 10651 10650 10649 10648 10646 10645 10643 10641 10639 10637 10635 10633 10632 10629 10626 10624 10621 10619 10616 10612 10609 10606 10602 10599 10595 10590 10586 10582 10579 10577 10577 10576 10578 10580 10583 10587 10590 10591 10589 10587 10590 10592 10597 10607 10611 10611 10612 10615 10618 10619 10620 10622 10623 10626 10627
10716 10714 10712 10710 10708 10706 10704 10702 10699 10697 10695 10693 10690 10687 10685 10682 10680 10679 10677 10675 10672 10669 10668 10667 10666 10665 10663 10662 10661 10661 10660 10657 10655 10654 10653 10651 10650 10649 10647 10646 10643 10641 10638 10637 10635 10632 10629 10626 10624 10621 10618 10615 10611 10607 10603 10600 10596 10591 10586 10581 10576 10572 10571 10571 10571 10573 10575 10578 10582 10584 10585 10584 10584 10587 10591 10597 10604 10606 10606 10607 10610 10613 10614 10615 10616 10617 10619 10621
10717 10715 10714 10712 10710 10708 10706 10704 10702 10699 10698 10695 10693 10690 10688 10685 10684 10682 10681 10679 10676 10673 10672 10670 10669 10667 10666 10665 10665 10664 10662 10660 10659 10657 10655 10654 10653 10652 10650 10647 10645 10642 10640 10638 10635 10631 10628 10626 10623 10620 10618 10614 10610 10606 10602 10598 10594 10589 10584 10578 10572 10568 10566 10566 10568 10569 10571 10575 10578 10578 10579 10580 10581 10585 10589 10594 10599 10602 10603 10603 10604 10607 10610 10611 10611 10612 10614 10616
10718 10717 10715 10713 10711 10709 10708 10706 10704 10702 10700 10698 10695 10693 10691 10688 10687 10685 10684 10682 10679 10677 10675 10674 10672 10671 10670 10669 10668 10667 10665 10663 10662 10660 10658 10657 10656 10654 10652 10649 10647 10644 10642 10639 10636 10633 10631 10627 10623 10621 10617 10613 10609 10605 10601 10597 10593 10588 10583 10577 10571 10566 10564 10564 10565 10567 10569 10572 10574 10574 10575 10576 10579 10583 10586 10590 10594 10597 10598 10599 10600 10602 10604 10606 10606 10608 10609 10611
10718 10717 10716 10714 10712 10711 10709 10708 10706 10704 10702 10700 10698 10696 10693 10692 10690 10689 10688 10685 10682 10680 10679 10677 10676 10674 10673 10672 10671 10669 10668 10666 10664 10663 10662 10660 10658 10656 10653 10651 10649 10646 10644 10641 10638 10636 10633 10629 10625 10621 10617 10613 10609 10605 10601 10596 10592 10588 10583 10577 10572 10566 10564 10563 10564 10565 10567 10569 10570 10571 10573 10574 10576 10580 10583 10586 10589 10591 10593 10593 10594 10596 10598 10600 10601 10603 10605 10605
10719 10718 10717 10715 10714 10712 10711 10709 10708 10706 10704 10702 10700 10699 10697 10695 10694 10692 10691 10688 10685 10683 10682 10680 10679 10677 10676 10675 10674 10672 10670 10669 10667 10665 10663 10661 10659 10657 10654 10652 10650 10647 10645 10641 10639 10636 10632 10628 10625 10621 10617 10613 10610 10605 10601 10597 10593 10588 10583 10579 10574 10569 10565 10564 10564 10564 10565 10566 10568 10570 10571 10572 10575 10578 10581 10582 10583 10585 10587 10588 10589 10590 10593 10595 10597 10598 10600 10600
10719 10719 10718 10716 10715 10713 10712 10711 10709 10708 10706 10704 10703 10701 10700 10698 10697 10695 10693 10690 10688 10687 10685 10683 10681 10680 10679 10678 10676 10675 10673 10671 10669 10667 10665 10663 10661 10658 10656 10654 10651 10648 10645 10642 10640 10637 10633 10630 10626 10622 10619 10615 10611 10606 10602 10598 10594 10589 10585 10581 10577 10572 10569 10566 10565 10564 10564 10565 10567 10568 10569 10571 10574 10577 10579 10579 10579 10579 10581 10583 10584 10586 10588 10590 10592 10593 10595 10596
10720 10719 10718 10717 10716 10715 10714 10712 10711 10709 10708 10706 10705 10704 10702 10700 10699 10697 10696 10694 10692 10690 10688 10686 10684 10682 10681 10680 10678 10677 10675 10673 10671 10669 10667 10665 10663 10661 10658 10656 10653 10650 10647 10644 10641 10638 10635 10632 10628 10624 10621 10617 10612 10608 10604 10600 10595 10591 10587 10583 10580 10576 10573 10570 10568 10566 10566 10566 10567 10568 10569 10570 10573 10576 10577 10575 10574 10574 10576 10579 10580 10581 10583 10585 10586 10587 10589 10590
10720 10719 10719 10718 10717 10716 10715 10714 10713 10711 10710 10708 10707 10706 10705 10702 10701 10700 10698 10696 10694 10692 10690 10688 10686 10685 10684 10682 10681 10679 10677 10675 10673 10671 10669 10667 10665 10663 10660 10657 10655 10652 10649 10646 10643 10640 10637 10633 10630 10627 10623 10619 10615 10610 10606 10601 10597 10593 10589 10586 10583 10580 10577 10574 10571 10569 10568 10568 10568 10568 10569 10570 10572 10574 10573 10572 10571 10572 10573 10574 10575 10576 10578 10579 10580 10581 10582 10584
10720 10719 10719 10719 10718 10717 10716 10715 10714 10712 10711 10710 10709 10708 10706 10704 10703 10702 10700 10698 10696 10694 10692 10690 10689 10687 10686 10684 10683 10681 10679 10677 10675 10673 10671 10669 10667 10665 10662 10660 10657 10654 10651 10648 10645 10642 10639 10635 10632 10629 10626 10621 10617 10613 10609 10604 10600 10596 10592 10588 10585 10582 10580 10578 10575 10573 10571 10570 10569 10569 10570 10571 10572 10572 10571 10570 10569 10569 10569 10570 10570 10571 10572 10573 10574 10574 10576 10577
10720 10720 10719 10719 10719 10718 10717 10716 10715 10714 10713 10712 10711 10710 10708 10706 10705 10704 10702 10700 10698 10696 10694 10692 10691 10689 10688 10686 10685 10683 10681 10679 10676 10674 10672 10671 10669 10667 10664 10662 10659 10656 10653 10650 10647 10644 10640 10637 10634 10631 10628 10624 10619 10615 10611 10607 10603 10598 10595 10591 10587 10584 10582 10580 10578 10575 10573 10572 10571 10571 10572 10572 10572 10571 10570 10569 10567 10566 10566 10566 10566 10566 10566 10566 10567 10567 10568 10570
10720 10719 10720 10719 10719 10718 10718 10717 10716 10715 10714 10713 10712 10711 10709 10708 10707 10705 10703 10701 10699 10698 10696 10694 10693 10691 10689 10688 10686 10684 10682 10680 10678 10675 10673 10672 10670 10668 10666 10663 10660 10658 10655 10652 10649 10646 10642 10639 10637 10634 10630 10625 10621 10617 10613 10609 10605 10601 10597 10593 10590 10587 10584 10582 10580 10577 10576 10574 10573 10573 10572 10572 10571 10570 10569 10567 10565 10563 10562 10561 10561 10560 10560 10559 10559 10559 10560 10562
10719 10719 10719 10719 10719 10719 10718 10718 10716 10716 10715 10714 10713 10712 10710 10709 10708 10707 10705 10703 10701 10699 10698 10696 10694 10692 10691 10689 10687 10685 10683 10681 10679 10677 10675 10673 10671 10669 10667 10664 10662 10659 10657 10654 10651 10648 10644 10641 10639 10635 10631 10628 10624 10620 10616 10612 10607 10603 10599 10596 10593 10590 10587 10584 10582 10580 10578 10576 10575 10574 10573 10572 10571 10569 10568 10565 10563 10561 10558 10556 10555 10554 10553 10553 10552 10551 10552 10553
10719 10719 10719 10719 10719 10719 10719 10718 10717 10716 10716 10715 10714 10713 10711 10711 10709 10708 10706 10704 10703 10701 10699 10697 10696 10694 10692 10691 10689 10687 10685 10683 10681 10678 10677 10675 10672 10670 10668 10665 10663 10661 10658 10656 10652 10649 10646 10643 10641 10637 10634 10630 10626 10622 10618 10614 10610 10606 10602 10599 10596 10593 10590 10587 10584 10582 10580 10578 10576 10575 10574 10572 10571 10569 10566 10564 10561 10559 10556 10553 10551 10549 10548 10547 10546 10545 10544 10545
10718 10719 10719 10719 10719 10719 10719 10718 10717 10717 10716 10716 10715 10713 10712 10711 10710 10708 10707 10705 10704 10702 10701 10699 10697 10696 10694 10692 10690 10688 10686 10684 10682 10680 10678 10676 10674 10671 10669 10667 10664 10662 10659 10657 10653 10650 10647 10645 10643 10639 10636 10632 10628 10625 10621 10617 10613 10609 10606 10602 10599 10596 10593 10590 10587 10584 10581 10579 10577 10575 10573 10571 10569 10567 10565 10562 10559 10557 10554 10551 10549 10546 10544 10543 10541 10540 10539 10539
10718 10718 10718 10719 10719 10719 10719 10718 10718 10717 10717 10716 10715 10714 10713 10712 10710 10709 10707 10706 10705 10703 10702 10700 10699 10697 10695 10693 10690 10689 10687 10685 10683 10682 10680 10677 10675 10673 10671 10668 10666 10663 10660 10657 10654 10651 10648 10646 10642 10639 10636 10633 10631 10628 10624 10620 10616 10612 10609 10605 10602 10598 10595 10592 10589 10586 10583 10581 10578 10576 10574 10571 10569 10566 10563 10560 10557 10555 10552 10550 10547 10545 10542 10540 10538 10537 10535 10534
10717 10717 10718 10718 10718 10719 10718 10718 10718 10717 10717 10716 10715 10714 10713 10712 10711 10709 10708 10707 10705 10704 10703 10701 10699 10697 10695 10693 10691 10689 10688 10686 10684 10683 10680 10678 10676 10674 10671 10669 10667 10664 10662 10659 10656 10653 10650 10647 10643 10640 10638 10635 10633 10630 10626 10622 10618 10614 10611 10607 10604 10600 10597 10594 10592 10589 10586 10582 10579 10577 10574 10571 10568 10565 10562 10559 10556 10553 10550 10548 10545 10543 10540 10538 10536 10534 10532 10531
10715 10716 10717 10717 10718 10718 10718 10718 10718 10717 10717 10716 10715 10714 10713 10712 10711 10710 10709 10707 10706 10705 10703 10702 10700 10698 10696 10694 10692 10690 10689 10687 10685 10683 10681 10679 10677 10675 10672 10670 10668 10666 10663 10660 10658 10655 10652 10650 10647 10644 10641 10638 10635 10631 10627 10623 10619 10616 10612 10609 10606 10603 10599 10596 10593 10590 10587 10584 10581 10577 10575 10572 10568 10564 10561 10558 10555 10552 10549 10546 10544 10541 10539 10536 10534 10532 10530 10528
10714 10715 10715 10716 10717 10717 10717 10717 10717 10717 10716 10716 10715 10714 10713 10712 10711 10710 10709 10708 10707 10705 10704 10702 10700 10698 10696 10694 10693 10691 10689 10687 10685 10683 10681 10679 10677 10675 10673 10671 10669 10666 10664 10661 10658 10656 10654 10651 10648 10644 10641 10637 10634 10630 10626 10622 10619 10616 10613 10610 10607 10604 10601 10597 10594 10591 10588 10585 10581 10578 10574 10571 10567 10564 10560 10557 10554 10551 10548 10545 10542 10540 10537 10535 10532 10530 10528 10526
10713 10714 10714 10715 10715 10716 10716 10716 10717 10716 10716 10715 10715 10714 10713 10712 10711 10710 10709 10708 10707 10705 10704 10702 10700 10698 10696 10695 10694 10692 10690 10688 10685 10683 10682 10680 10678 10676 10674 10671 10669 10667 10664 10661 10659 10656 10653 10650 10646 10643 10639 10636 10632 10629 10625 10622 10619 10616 10613 10610 10607 10604 10601 10598 10595 10591 10588 10585 10582 10578 10574 10570 10566 10563 10559 10556 10553 10550 10547 10544 10541 10538 10535 10533 10530 10528 10526 10524
10711 10712 10713 10714 10714 10715 10715 10715 10716 10716 10715 10715 10714 10713 10712 10712 10711 10710 10709 10708 10707 10705 10703 10702 10700 10698 10697 10696 10694 10692 10690 10688 10686 10683 10681 10680 10678 10676 10674 10671 10669 10666 10664 10661 10658 10656 10652 10649 10646 10643 10639 10636 10632 10629 10626 10622 10619 10616 10614 10611 10607 10604 10601 10598 10595 10591 10588 10584 10581 10578 10574 10570 10566 10562 10559 10555 10551 10548 10545 10542 10538 10535 10533 10530 10528 10526 10523 10521
10709 10710 10711 10712 10713 10713 10714 10714 10714 10714 10714 10714 10714 10713 10712 10711 10710 10709 10709 10708 10706 10705 10703 10701 10700 10699 10697 10696 10694 10693 10691 10688 10686 10684 10682 10679 10677 10675 10673 10671 10668 10666 10663 10660 10658 10655 10652 10649 10646 10643 10639 10636 10633 10629 10626 10623 10620 10617 10614 10611 10608 10604 10601 10597 10594 10590 10587 10583 10580 10576 10573 10569 10566 10562 10558 10554 10550 10546 10543 10539 10536 10533 10530 10527 10525 10522 10520 10518
10707 10708 10709 10710 10711 10712 10712 10713 10713 10713 10713 10713 10713 10712 10712 10711 10710 10709 10708 10707 10706 10704 10703 10701 10700 10698 10697 10696 10694 10693 10691 10689 10687 10685 10683 10680 10678 10675 10672 10670 10668 10665 10663 10660 10658 10655 10652 10649 10646 10643 10640 10636 10633 10629 10626 10623 10620 10617 10614 10610 10607 10603 10600 10596 10593 10589 10586 10582 10578 10575 10571 10568 10564 10560 10557 10553 10549 10544 10540 10536 10533 10530 10527 10524 10521 10519 10517 10514
10704 10706 10707 10708 10709 10710 10710 10711 10711 10711 10712 10712 10711 10711 10711 10710 10709 10709 10708 10707 10705 10704 10702 10701 10699 10698 10697 10696 10694 10693 10691 10689 10687 10685 10683 10680 10678 10676 10673 10670 10668 10665 10663 10660 10657 10654 10651 10648 10645 10642 10638 10635 10632 10629 10626 10623 10619 10616 10613 10609 10606 10603 10599 10596 10592 10588 10584 10580 10576 10573 10569 10565 10562 10558 10554 10550 10546 10542 10538 10534 10530 10527 10524 10521 10518 10515 10513 10510
10702 10703 10705 10706 10707 10708 10709 10709 10710 10710 10710 10710 10710 10710 10709 10709 10708 10708 10707 10706 10704 10703 10702 10700 10699 10698 10696 10695 10694 10692 10691 10689 10687 10685 10683 10681 10678 10676 10673 10671 10668 10665 10663 10660 10657 10654 10651 10648 10645 10641 10637 10634 10631 10628 10625 10622 10619 10616 10612 10608 10605 10602 10598 10595 10591 10587 10583 10579 10575 10571 10567 10563 10559 10555 10550 10546 10542 10539 10535 10531 10527 10523 10520 10516 10513 10511 10508 10506
10700 10701 10702 10703 10705 10706 10706 10707 10708 10708 10708 10708 10708 10708 10708 10707 10707 10706 10706 10705 10704 10702 10701 10700 10698 10697 10696 10695 10693 10692 10690 10688 10686 10685 10683 10681 10678 10675 10673 10670 10667 10664 10662 10659 10656 10653 10650 10647 10644 10641 10638 10634 10631 10628 10625 10622 10618 10614 10611 10608 10605 10601 10598 10594 10590 10586 10582 10578 10573 10569 10565 10561 10556 10552 10547 10542 10538 10534 10530 10526 10522 10519 10515 10512 10508 10505 10502 10500